Wind_Speed
17 16 20 17 18 17 12 12 12 11 14 12 16 18 16 15 16 15 15 17 21 28 30 27 27 28 27 26 25 23 23 22 21 20 18 18 17 11 12 34 19 22 19 17
16 22 17 15 15 15 13 14 14 12 14 12 12 13 14 14 17 19 20 23 22 22 24 27 26 27 33 32 31 29 27 27 24 23 22 24 20 19 16 13 20 22 20 20
21 8 15 18 16 16 15 15 13 12 9 11 12 15 15 14 19 22 23 23 22 22 21 23 24 23 22 30 38 38 35 34 32 30 29 27 26 25 24 23 22 23 19 18
22 20 13 12 16 15 18 16 15 13 12 16 15 17 19 16 15 23 23 20 19 18 20 20 23 24 23 21 21 35 37 37 36 36 36 35 33 34 30 28 27 26 22 21
20 15 18 16 15 15 17 14 15 15 17 16 15 14 11 18 14 11 22 24 22 21 22 21 22 25 25 24 21 21 33 33 35 39 36 36 38 37 36 36 34 33 28 26
19 14 11 12 12 11 10 13 14 16 18 20 23 18 17 18 16 8 15 22 24 24 22 22 24 25 27 30 29 25 24 31 31 33 35 35 35 36 41 42 39 36 34 31
21 14 9 17 13 12 14 14 16 15 16 15 21 25 15 9 18 15 12 15 18 21 22 24 24 25 25 25 30 32 29 28 33 35 35 34 34 35 36 39 42 39 37 36
24 14 10 9 14 14 17 20 21 15 13 14 12 14 7 11 13 16 17 16 16 19 22 22 21 22 22 22 23 23 27 31 32 37 39 39 39 38 38 37 38 41 40 41
11 12 4 8 5 19 14 16 13 13 15 14 9 8 9 9 9 11 7 11 14 15 16 18 21 21 20 21 21 21 21 22 28 32 37 39 37 35 37 37 34 37 43 40
4 6 9 6 6 6 10 16 8 9 7 13 15 13 7 13 9 7 5 3 10 17 16 17 18 20 19 18 19 20 17 17 18 22 24 30 32 32 29 29 30 31 35 37
8 10 10 9 10 11 7 8 10 12 14 6 7 3 1 11 9 6 6 14 16 15 18 21 20 19 16 14 11 8 9 10 9 7 9 16 20 23 22 25 28 31 34 40
7 7 18 21 12 19 15 17 17 19 20 19 22 11 9 11 7 8 9 17 17 18 21 18 14 14 16 14 10 8 7 9 10 12 10 7 6 8 13 17 21 24 26 26
4 6 11 10 10 11 13 18 26 27 24 25 16 6 7 7 6 16 16 15 15 14 16 18 19 17 19 26 32 33 28 24 24 18 21 16 12 10 9 10 14 18 21 23
5 9 11 15 7 5 6 9 11 14 20 24 29 18 8 8 8 9 16 18 22 24 25 25 24 24 21 20 22 28 36 35 30 27 25 23 21 17 16 15 14 14 16 17
9 12 11 12 12 11 12 12 12 13 14 14 12 10 13 14 13 11 22 23 23 25 27 28 29 29 27 27 23 24 26 29 29 32 32 30 26 22 22 23 22 21 22 20
9 10 9 13 12 11 14 15 16 17 16 17 16 18 15 14 12 11 12 13 17 17 25 26 27 28 29 25 24 25 26 25 27 25 28 31 32 31 29 27 26 23 24 25
12 12 10 14 6 12 19 20 23 23 18 14 13 7 7 9 10 12 14 17 20 25 29 31 32 33 33 31 31 25 23 26 29 27 23 22 26 25 29 26 27 26 25 25
10 12 12 12 9 11 8 8 10 12 12 11 10 8 8 9 15 19 17 18 25 29 32 33 32 32 32 35 34 33 29 24 27 29 27 24 23 21 22 22 23 24 26 26
17 13 8 8 12 14 18 10 3 9 8 9 11 12 10 9 15 14 21 28 28 32 33 34 35 36 34 33 31 35 37 33 29 27 31 31 30 29 26 25 27 26 24 26
19 18 15 9 6 4 3 1 6 6 13 12 14 7 8 15 17 14 25 31 34 35 36 36 37 38 38 36 36 37 34 38 38 34 33 33 34 33 29 29 30 30 27 26
13 16 20 16 9 9 8 7 7 7 4 7 13 14 18 19 20 27 29 30 30 33 33 33 34 34 33 34 35 38 39 38 37 41 40 38 35 34 33 31 31 31 28 26
9 10 12 15 9 11 9 5 5 8 14 19 18 19 23 24 25 26 27 32 32 31 32 27 27 26 24 26 30 33 35 38 39 39 41 45 40 37 35 34 31 32 30 29
7 11 7 10 8 12 11 11 13 19 19 19 19 17 20 27 26 27 30 30 29 27 23 20 20 19 16 19 22 26 27 30 35 39 42 42 44 41 41 37 34 33 32 31
11 15 14 13 11 15 17 13 13 17 22 19 20 23 25 27 27 30 30 30 25 23 20 18 18 19 17 18 18 22 24 25 29 33 37 41 43 44 44 41 36 34 34 32
11 14 11 14 14 15 13 17 17 17 20 24 26 27 27 27 26 30 31 29 23 21 21 22 22 22 20 18 18 19 20 22 24 26 29 33 38 44 46 45 41 39 38 37
13 14 16 13 15 14 10 12 17 21 25 23 24 26 26 25 27 29 28 23 21 20 21 21 21 22 22 19 17 15 17 19 18 16 17 21 28 37 44 45 42 43 41 41
Wind_Direction
212 211 222 228 227 232 238 232 233 236 231 230 237 245 237 235 231 231 232 223 230 240 249 250 248 250 241 235 225 230 236 235 233 234 231 232 250 260 265 227 206 269 272 270
217 227 228 232 225 228 234 236 241 245 235 226 235 242 237 230 221 211 219 226 226 227 236 248 255 255 248 247 244 240 241 242 241 232 231 228 237 245 255 223 233 247 258 265
223 234 227 231 227 223 231 229 230 233 221 231 234 242 222 210 218 220 224 223 224 227 231 237 241 250 248 248 248 248 247 247 249 241 237 236 232 236 242 236 233 247 259 266
237 235 249 227 223 226 237 236 228 228 233 245 211 258 200 208 208 216 218 218 218 225 233 241 247 249 254 255 250 240 247 246 245 246 244 241 238 238 239 235 245 252 253 266
229 236 230 228 235 238 240 237 228 234 239 245 225 244 226 194 205 214 222 227 225 223 228 236 252 255 256 257 254 248 241 245 245 248 249 249 248 248 247 244 244 246 250 253
234 216 205 232 230 229 225 226 234 237 241 238 237 220 240 207 198 216 217 225 228 231 227 244 255 257 260 259 257 251 246 238 237 242 243 249 252 252 251 248 244 246 247 251
220 224 237 243 240 238 221 222 229 224 228 243 241 226 233 217 216 224 222 233 235 239 249 253 244 252 261 259 254 252 245 242 239 239 240 243 247 251 255 253 247 244 244 247
223 201 218 238 220 238 225 233 243 254 246 235 184 220 193 220 218 225 231 234 239 245 248 248 246 239 249 262 259 253 247 244 241 238 239 241 244 248 249 254 251 245 244 244
234 225 193 196 204 215 226 229 246 273 269 278 226 183 238 218 216 220 215 229 237 240 244 245 245 241 238 247 259 267 261 256 248 247 245 244 249 252 252 251 253 250 247 251
247 242 206 225 218 228 218 226 242 233 270 262 256 251 234 189 186 171 187 236 256 258 261 260 254 250 245 240 245 255 266 265 263 259 253 249 247 248 252 252 254 255 251 250
263 250 236 234 234 231 219 221 229 236 225 245 263 249 275 172 190 210 228 240 250 262 266 269 269 266 259 246 244 263 277 284 282 275 276 267 261 255 249 246 248 251 250 250
247 256 251 250 259 230 243 247 248 245 236 240 255 254 210 198 196 207 235 242 250 263 266 272 275 260 252 257 267 281 303 302 305 308 300 288 281 255 252 251 243 243 245 249
258 247 251 240 249 246 245 249 247 248 256 254 244 243 182 215 222 241 247 253 261 267 274 283 288 283 281 272 271 278 286 293 297 301 306 291 268 263 251 239 238 239 240 247
250 251 259 278 325 278 260 248 236 231 242 252 251 252 236 254 255 256 260 270 281 286 287 285 282 284 278 276 279 274 267 273 286 292 295 294 288 273 263 257 255 251 246 245
246 254 256 261 273 269 259 249 239 240 247 257 260 264 248 264 261 264 277 276 276 278 278 284 291 289 287 280 271 263 269 274 273 277 280 282 279 273 281 276 261 256 257 254
237 250 261 271 261 263 263 255 252 250 250 255 260 266 262 254 272 276 283 287 285 292 286 286 285 285 286 284 279 273 265 270 271 267 264 267 266 278 270 266 272 260 254 252
233 244 262 271 247 276 271 267 256 251 245 248 247 264 219 267 270 275 281 283 283 281 282 283 284 283 280 279 278 274 263 261 263 266 268 264 265 261 265 271 268 261 256 251
232 239 257 263 277 274 261 278 277 225 220 225 232 258 254 265 281 284 287 282 284 286 289 288 287 286 281 276 273 273 266 264 258 259 261 264 264 273 279 278 279 273 259 249
230 229 252 250 264 270 289 270 237 185 214 234 244 258 273 284 298 303 281 288 292 291 289 286 282 282 280 278 278 270 267 262 257 256 257 262 265 271 278 277 287 291 286 271
221 221 234 247 241 264 332 307 215 223 263 239 273 230 271 296 303 286 280 295 297 296 294 289 282 278 278 277 273 271 267 261 259 254 254 256 260 264 268 273 283 286 289 285
191 207 224 234 247 265 273 255 267 246 259 268 283 284 293 295 291 297 298 296 304 305 299 293 286 283 281 277 272 269 268 264 260 257 255 254 256 258 259 265 276 281 287 286
191 196 209 222 234 255 253 255 220 262 279 281 284 291 292 295 297 300 305 305 310 311 310 305 298 296 287 280 276 274 270 267 263 259 255 253 254 255 259 259 264 271 280 286
228 219 226 209 227 237 259 254 262 290 281 286 288 290 293 297 302 301 306 312 313 312 310 307 305 306 310 302 295 290 285 276 269 260 254 250 248 251 255 258 260 266 273 279
256 251 248 257 264 259 269 271 271 281 287 288 294 296 297 296 299 302 305 309 303 306 306 307 306 305 304 309 308 307 298 294 282 268 258 251 246 246 251 254 259 263 268 273
233 258 255 254 262 265 267 270 272 278 295 302 303 301 298 296 296 300 303 304 292 296 301 300 300 302 301 301 302 319 313 304 300 286 270 257 247 243 247 250 254 259 262 269
252 258 244 246 240 256 246 270 284 293 303 302 298 298 299 296 294 296 302 298 296 301 303 304 302 298 293 287 293 305 312 307 311 296 281 263 254 239 245 248 247 252 257 264
Height
3134 3137 3136 3138 3140 3141 3142 3142 3143 3144 3144 3144 3145 3146 3146 3147 3148 3151 3152 3151 3152 3154 3154 3155 3157 3158 3160 3163 3165 3167 3169 3171 3172 3174 3175 3176 3178 3179 3181 3179 3182 3186 3188 3186
3133 3130 3134 3135 3136 3137 3138 3139 3140 3140 3140 3140 3141 3142 3142 3143 3144 3144 3145 3146 3148 3150 3151 3152 3153 3154 3155 3157 3159 3162 3164 3166 3168 3169 3171 3172 3175 3176 3179 3179 3183 3183 3183 3182
3129 3129 3129 3131 3131 3133 3134 3135 3136 3137 3136 3137 3138 3137 3138 3137 3138 3138 3140 3141 3143 3145 3147 3146 3147 3148 3150 3151 3153 3155 3158 3160 3162 3164 3165 3167 3170 3171 3174 3176 3179 3179 3181 3181
3126 3127 3127 3127 3128 3130 3130 3131 3133 3134 3134 3132 3131 3127 3129 3132 3134 3133 3135 3137 3138 3140 3142 3142 3141 3143 3144 3146 3147 3149 3150 3153 3155 3157 3159 3161 3163 3165 3168 3171 3173 3174 3175 3175
3122 3122 3123 3124 3125 3126 3127 3128 3129 3130 3129 3129 3129 3130 3121 3127 3131 3128 3130 3131 3133 3135 3136 3136 3136 3136 3138 3140 3142 3143 3144 3146 3148 3150 3152 3153 3155 3158 3159 3162 3164 3165 3169 3170
3119 3117 3119 3120 3120 3122 3123 3125 3126 3126 3126 3121 3122 3124 3118 3119 3122 3124 3124 3125 3127 3129 3130 3131 3132 3130 3131 3133 3135 3137 3139 3139 3141 3142 3144 3145 3147 3148 3150 3151 3155 3158 3161 3162
3114 3115 3114 3115 3119 3119 3120 3121 3119 3117 3114 3109 3113 3114 3116 3114 3115 3118 3119 3120 3122 3123 3124 3126 3127 3126 3126 3126 3127 3129 3131 3133 3134 3135 3136 3138 3139 3141 3141 3142 3146 3149 3151 3152
3106 3109 3111 3109 3113 3114 3115 3116 3111 3102 3099 3098 3107 3109 3110 3112 3113 3113 3115 3116 3117 3118 3118 3120 3121 3121 3121 3120 3120 3121 3122 3124 3126 3127 3128 3129 3131 3132 3134 3135 3136 3140 3141 3141
3105 3106 3106 3105 3108 3111 3112 3113 3111 3109 3105 3103 3098 3107 3110 3110 3111 3111 3113 3113 3113 3114 3114 3115 3115 3116 3116 3115 3114 3114 3115 3116 3117 3118 3120 3121 3122 3123 3125 3126 3129 3130 3133 3136
3106 3105 3105 3104 3106 3107 3108 3109 3111 3112 3110 3104 3097 3098 3101 3107 3111 3111 3112 3112 3110 3111 3112 3111 3112 3112 3111 3110 3110 3109 3108 3108 3110 3110 3112 3112 3114 3115 3117 3119 3121 3123 3125 3127
3103 3104 3103 3103 3104 3104 3106 3106 3108 3110 3111 3106 3103 3103 3105 3105 3107 3109 3107 3105 3106 3107 3108 3109 3109 3109 3108 3107 3106 3105 3105 3104 3104 3104 3105 3105 3106 3106 3107 3109 3111 3113 3115 3118
3101 3100 3098 3099 3097 3099 3100 3103 3105 3103 3103 3103 3100 3101 3103 3102 3103 3104 3102 3103 3104 3104 3105 3105 3106 3105 3105 3105 3103 3102 3101 3101 3101 3100 3100 3100 3100 3101 3102 3102 3104 3105 3107 3109
3098 3097 3094 3094 3096 3094 3095 3097 3099 3101 3101 3096 3098 3098 3098 3099 3100 3099 3100 3100 3100 3101 3101 3100 3100 3101 3100 3100 3100 3099 3098 3097 3097 3096 3096 3096 3095 3096 3096 3097 3099 3099 3100 3102
3095 3096 3095 3091 3093 3094 3094 3094 3095 3096 3095 3093 3092 3095 3097 3099 3098 3097 3097 3097 3096 3095 3095 3095 3095 3095 3095 3094 3094 3092 3092 3092 3092 3092 3091 3090 3091 3090 3090 3091 3092 3093 3094 3095
3094 3093 3092 3092 3091 3091 3091 3091 3091 3092 3092 3092 3091 3092 3095 3096 3095 3093 3092 3092 3092 3091 3089 3088 3087 3086 3086 3086 3086 3086 3086 3084 3084 3086 3085 3085 3085 3084 3084 3084 3084 3086 3088 3088
3091 3091 3090 3089 3088 3088 3088 3087 3087 3088 3089 3090 3091 3091 3092 3090 3089 3090 3089 3088 3086 3085 3083 3082 3081 3080 3078 3078 3078 3078 3079 3078 3078 3078 3079 3078 3078 3078 3077 3077 3077 3078 3079 3080
3089 3088 3088 3084 3085 3085 3084 3081 3080 3082 3085 3087 3087 3087 3085 3087 3086 3086 3084 3083 3081 3079 3077 3076 3074 3072 3071 3070 3070 3071 3071 3071 3072 3072 3071 3071 3072 3071 3070 3070 3069 3070 3070 3072
3085 3086 3085 3084 3083 3080 3076 3075 3075 3077 3080 3082 3083 3084 3083 3083 3081 3080 3079 3077 3074 3072 3070 3068 3065 3063 3062 3061 3061 3061 3063 3064 3064 3065 3065 3065 3065 3064 3064 3064 3063 3063 3062 3064
3081 3084 3083 3083 3079 3077 3075 3074 3075 3076 3079 3079 3080 3080 3079 3077 3076 3078 3072 3069 3068 3064 3062 3059 3056 3054 3053 3052 3051 3051 3052 3054 3056 3057 3057 3058 3058 3057 3057 3058 3057 3056 3055 3055
3076 3080 3082 3079 3081 3077 3073 3072 3072 3074 3075 3073 3074 3074 3074 3072 3073 3074 3065 3063 3059 3055 3051 3048 3045 3042 3041 3042 3041 3039 3040 3042 3044 3046 3048 3048 3049 3049 3049 3050 3050 3049 3048 3048
3072 3076 3077 3078 3078 3074 3072 3071 3072 3075 3076 3070 3070 3070 3068 3067 3066 3061 3058 3054 3050 3045 3040 3036 3033 3031 3031 3029 3028 3027 3027 3029 3032 3034 3036 3037 3039 3040 3041 3042 3042 3042 3041 3041
3071 3073 3073 3075 3074 3074 3068 3069 3073 3070 3068 3068 3066 3064 3061 3059 3057 3054 3050 3045 3042 3036 3031 3027 3022 3021 3021 3019 3017 3016 3016 3018 3018 3020 3021 3024 3027 3029 3030 3032 3034 3035 3035 3035
3069 3069 3067 3070 3070 3066 3066 3067 3066 3065 3064 3063 3061 3058 3055 3051 3049 3046 3042 3039 3035 3030 3026 3022 3018 3016 3015 3013 3011 3008 3008 3007 3006 3006 3008 3010 3014 3018 3020 3022 3024 3026 3027 3028
3065 3063 3063 3065 3065 3064 3063 3062 3061 3059 3058 3057 3055 3051 3048 3045 3042 3039 3036 3032 3029 3025 3021 3018 3015 3013 3011 3009 3007 3003 3000 2998 2996 2994 2995 2998 3002 3007 3009 3012 3014 3017 3018 3019
3063 3059 3060 3060 3060 3060 3059 3057 3056 3054 3053 3051 3048 3045 3041 3038 3035 3031 3028 3025 3022 3019 3016 3013 3010 3007 3006 3004 3002 2999 2995 2993 2989 2985 2985 2987 2991 2995 2998 3001 3005 3007 3009 3010
3055 3054 3055 3055 3054 3054 3055 3053 3051 3049 3047 3044 3041 3038 3034 3031 3027 3025 3021 3018 3015 3013 3010 3007 3004 3002 3000 2998 2996 2993 2990 2987 2985 2981 2980 2980 2982 2985 2987 2989 2994 2997 3000 3001